Location: Niedergestelen
(46.3129°N, 7.7822°E)
Time: 06:41:38
(UTC+00:00)

ISS - Pass Details

Date: 01 December 2020
Orbit: 418 x 419 km, 51.6° (Epoch: 19 January)

Event Time Altitude Azimuth Distance (km) Brightness Sun altitude
Rises 17:52:48 0° 295° (WNW) 2,370 1.0 -21.5°
Reaches altitude 10° 17:54:58 10° 302° (WNW) 1,504 -0.3 -21.9°
Enters shadow 17:57:08 31° 329° (NNW) 760 -2.3 -22.3°
